Glens Falls, NY

6:41 PM EST on November 18, 2019 (GMT -0500)
Bennett Memorial

Weather History for KGFL - September, 2019

Change the Weather History Date:

Sunday, September 15, 2019

  Actual Average Record
Temperature  
Mean Temperature 62 °F 59 °F  
Max Temperature 76 °F 71 °F 94 °F (1915)
Min Temperature 48 °F 47 °F 30 °F (1913)
Degree Days  
Heating Degree Days 3 7  
Month to date heating degree days 78 72  
Since 1 July heating degree days 106 138  
Cooling Degree Days 0 1  
Month to date cooling degree days 12 20  
Year to date cooling degree days 407 347  
Growing Degree Days 12 (Base 50)    
Moisture  
Dew Point 54 °F    
Average Humidity 72    
Maximum Humidity 100    
Minimum Humidity 43    
Precipitation  
Precipitation T in 0.11 in 1.90 in (1912)
Month to date precipitation 1.06 1.58  
Year to date precipitation 29.85 27.39  
Sea Level Pressure  
Sea Level Pressure 30.12 in    
Wind  
Wind Speed 4 mph (WSW)    
Max Wind Speed 15 mph    
Max Gust Speed 19 mph    
Visibility 6 miles    
Events Fog , Rain    
T = Trace of Precipitation, MM = Missing Value Source: NWS Daily Summary

Daily Weather History Graph

Daily Weather History Graph

Search for Another Location

Airport or City:

Astronomy

Sep. 15, 2019 Rise Set
Actual Time 6:33 AM EDT 7:04 PM EDT
Civil Twilight 6:04 AM EDT 7:33 PM EDT
Nautical Twilight 5:31 AM EDT 8:07 PM EDT
Astronomical Twilight 4:56 AM EDT 8:42 PM EDT
Moon 8:09 PM EDT (9/15) 7:41 AM EDT (9/15)
Length of Visible Light 13h 28m
Length of Day
12h 31m
Full, 98% of the Moon is Illuminated
Sep 15
Full
Sep 21
Last Quarter
Sep 28
New
Oct 5
First Quarter
Oct 13
Full

Hourly Weather History & Observations

Time (EDT) Temp. Dew Point Humidity Pressure Visibility Wind Dir Wind Speed Gust Speed Precip Events Conditions
12:53 AM 61.0 °F 60.1 °F 97% 30.14 in 9.0 mi SSE 8.1 mph - N/A   Overcast
1:17 AM 60.1 °F 59.0 °F 96% 30.14 in 7.0 mi South 4.6 mph - N/A   Mostly Cloudy
1:53 AM 59.0 °F 57.9 °F 96% 30.14 in 7.0 mi South 5.8 mph - N/A   Partly Cloudy
2:24 AM 59.0 °F 57.9 °F 96% 30.14 in 2.0 mi SW 5.8 mph - N/A   Mostly Cloudy
2:32 AM 59.0 °F 57.9 °F 96% 30.14 in 3.0 mi SSW 5.8 mph - N/A   Scattered Clouds
2:53 AM 55.9 °F 55.9 °F 100% 30.14 in 1.0 mi Calm Calm - N/A   Mist
3:00 AM 55.0 °F 54.0 °F 96% 30.14 in 0.5 mi Calm Calm - N/A Fog Fog
3:14 AM 55.0 °F 55.0 °F 100% 30.14 in 0.2 mi Calm Calm - N/A Fog Fog
3:53 AM 53.1 °F 52.0 °F 96% 30.14 in 0.2 mi Calm Calm - N/A Fog Fog
4:53 AM 52.0 °F 51.1 °F 97% 30.14 in 0.2 mi Calm Calm - N/A Fog Fog
5:02 AM 51.1 °F 51.1 °F 100% 30.14 in 0.5 mi Calm Calm - N/A Fog Fog
5:12 AM 50.0 °F 48.9 °F 96% 30.14 in 0.2 mi Calm Calm - N/A Fog Fog
5:53 AM 50.0 °F 50.0 °F 100% 30.16 in 0.2 mi Calm Calm - N/A Fog Fog
6:15 AM 50.0 °F 48.9 °F 96% 30.16 in 0.5 mi Calm Calm - N/A Fog Fog
6:45 AM 50.0 °F 48.9 °F 96% 30.16 in 0.2 mi Calm Calm - N/A Fog Fog
6:53 AM 48.9 °F 48.0 °F 97% 30.16 in 0.2 mi Calm Calm - N/A Fog Fog
7:53 AM 54.0 °F 53.1 °F 97% 30.16 in 0.2 mi Calm Calm - N/A Fog Fog
8:38 AM 57.0 °F 57.0 °F 100% 30.15 in 1.0 mi Calm Calm - N/A   Mist
8:53 AM 57.9 °F 57.0 °F 97% 30.15 in 0.8 mi Calm Calm - N/A   Overcast
9:07 AM 57.9 °F 57.9 °F 100% 30.15 in 2.0 mi Calm Calm - N/A   Mostly Cloudy
9:15 AM 60.1 °F 59.0 °F 96% 30.15 in 7.0 mi Calm Calm - N/A   Mostly Cloudy
9:22 AM 60.1 °F 59.0 °F 96% 30.15 in 10.0 mi Calm Calm - N/A   Scattered Clouds
9:53 AM 64.9 °F 55.0 °F 70% 30.14 in 10.0 mi WSW 9.2 mph - N/A   Clear
10:53 AM 68.0 °F 53.1 °F 59% 30.14 in 10.0 mi SW 8.1 mph - N/A   Partly Cloudy
11:53 AM 70.0 °F 53.1 °F 55% 30.12 in 10.0 mi West 8.1 mph - N/A   Scattered Clouds
12:53 PM 70.0 °F 55.0 °F 59% 30.11 in 10.0 mi Variable 5.8 mph - N/A   Scattered Clouds
1:53 PM 73.9 °F 53.1 °F 48% 30.08 in 10.0 mi West 8.1 mph - N/A   Partly Cloudy
2:53 PM 75.0 °F 51.1 °F 43% 30.06 in 10.0 mi West 10.4 mph 18.4 mph N/A   Scattered Clouds
3:53 PM 73.0 °F 51.1 °F 46% 30.06 in 10.0 mi WSW 6.9 mph - N/A   Mostly Cloudy
4:53 PM 70.0 °F 52.0 °F 53% 30.07 in 10.0 mi WSW 5.8 mph - N/A   Overcast
5:53 PM 66.9 °F 54.0 °F 63% 30.05 in 10.0 mi WSW 5.8 mph - 0.00 in Rain Light Rain
6:53 PM 68.0 °F 54.0 °F 61% 30.07 in 10.0 mi West 4.6 mph - 0.00 in   Overcast
7:53 PM 66.0 °F 54.0 °F 65% 30.07 in 10.0 mi NW 4.6 mph - N/A   Overcast
8:53 PM 64.9 °F 54.0 °F 68% 30.06 in 10.0 mi West 4.6 mph - N/A   Mostly Cloudy
9:53 PM 62.1 °F 54.0 °F 75% 30.06 in 10.0 mi NW 4.6 mph - N/A   Partly Cloudy
10:53 PM 61.0 °F 54.0 °F 78% 30.06 in 10.0 mi NW 8.1 mph - N/A   Clear
11:53 PM 57.0 °F 53.1 °F 87% 30.07 in 10.0 mi Calm Calm - N/A   Clear